Regional Weather Roundup
Issued by NWS

Home | Current Version | Previous Version | Text Only | Print | Product List | Glossary On
Versions: 1 2 3 4 5 6 7 8 9 10 11 12 13 14 15 16 17 18 19 20 21 22 23 24 25 26 27 28 29 30 31 32 33 34 35 36 37 38 39 40 41 42 43 44 45 46 47 48 49 50
000
ASUS44 KMEG 232010
RWRTN
TENNESSEE HOURLY STATE WEATHER ROUNDUP
NATIONAL WEATHER SERVICE MEMPHIS TN
300 PM CDT WED JUL 23 2014

TNZ002-004-019-021-049-052-054-088>092-232100-
WEST TENNESSEE

CITY           SKY/WX    TMP DP  RH WIND       PRES   REMARKS
MEMPHIS INTL   MOSUNNY   91  73  55 CALM      30.01F HX  99
NWS MEMPHIS      N/A     89 N/A N/A MISG        N/A
JACKSON        CLOUDY    75  69  81 SE10G18   30.06R
DYERSBURG      CLOUDY    79  64  61 SE5       30.04F
UNION CITY     PTSUNNY   75  73  94 SW10      29.94F
PARIS          PTSUNNY   83  71  66 S12       29.95F
LEXINGTON      SUNNY     77  66  69 W8        30.04F
SAVANNAH         N/A     90  73  58 W3          N/A  HX  98
$$

TNZ008-025-027-028-033-062-065-066-232100-
NORTH MIDDLE TENNESSEE

CITY           SKY/WX    TMP DP  RH WIND       PRES   REMARKS
NASHVILLE      LGT RAIN  81  75  82 SW3       30.00F
DICKSON        MOSUNNY   75  66  73 S13       30.01F
PORTLAND       PTSUNNY   91  72  52 S12       29.94F HX  98
CLARKSVILLE    PTSUNNY   90  70  51 SW9       29.97R HX  95
LEBANON        MOSUNNY   92  71  50 VRB6      29.97F HX  98
SMYRNA         PTSUNNY   94  73  50 W8        29.99F HX 103
MURFREESBORO   MOSUNNY   90  71  53 VRB5      29.99F HX  96
COOKEVILLE     MOSUNNY   88  75  66 S5        30.03F HX  97
LIVINGSTON       N/A     85  73  67 SW6       30.03F HX  91
GALLATIN       MOSUNNY   94  71  47 SW8       29.97F HX 101
CROSSVILLE     LGT RAIN  69  66  90 SE6       30.09F
$$

TNZ061-075-076-078-094-096-097-232100-
SOUTH MIDDLE TENNESSEE

CITY           SKY/WX    TMP DP  RH WIND       PRES   REMARKS
LEWISBURG      MOSUNNY   86  73  64 SW8       30.03F HX  93
FAYETTEVILLE   SUNNY     81  72  74 W8        30.05F
TULLAHOMA      SUNNY     84  72  65 S6        30.05F
WINCHESTER     MOSUNNY   88  72  58 CALM      30.03F HX  94
MCMINNVILLE    SUNNY     82  73  74 SW5       30.04F
COLUMBIA       SUNNY     88  75  66 SW7       30.02R HX  97
SHELBYVILLE    MOSUNNY   90  73  58 CALM      30.03F HX  98
$$

TNZ017-018-042-046-047-232100-
NORTHEAST TENNESSEE

CITY           SKY/WX    TMP DP  RH WIND       PRES   REMARKS
TRI CITIES     CLOUDY    82  66  58 VRB6      30.04F
ELIZABETHTON   CLEAR     81  70  69 SW6       30.05F
$$

TNZ012-013-036-069-073-074-232100-
CENTRAL EAST TENNESSEE

CITY           SKY/WX    TMP DP  RH WIND       PRES   REMARKS
KNOXVILLE      PTSUNNY   83  71  67 N14G23    30.04F
OAK RIDGE      LGT RAIN  71  69  93 E7        30.07F FOG
GATLINBURG     PTCLDY    82  70  65 CALM      30.04F
MORRISTOWN     PTCLDY    73  66  78 VRB5      30.10R
$$

TNZ083-085-099-232100-
SOUTHEAST TENNESSEE

CITY           SKY/WX    TMP DP  RH WIND       PRES   REMARKS
CHATTANOOGA    PTSUNNY   87  70  56 W7        30.01F HX  92
$$

SKY/WX REPORTED AS FAIR MEANS FEW OR NO CLOUDS BELOW
12 THOUSAND FEET.




USA.gov is the U.S. government's official web portal to all federal, state and local government web resources and services.